LiveATC.Net - Listen to live air traffic control over the Internet! Contact for advertising information

ICAO: KISM  IATA: ISM   Airport: Kissimmee Gateway Airport
City: Orlando   State/Province: Florida
Country: United States   Continent: North America
KISM METAR Weather: KISM 020050Z 10005KT 10SM OVC042 23/21 A3003
KISM Flight Activity (FlightAware)
KISM Airport Info   (AirNav) (iFlightPlanner)
KISM VFR Sectional Chart   (iFlightPlanner) 
KISM IFR Low Chart   (iFlightPlanner) 
KISM Del/Gnd/Twr
Feed Status: DOWN
Last heard on: 2015-05-05 21:45:03 (210 days 3 hours 49 minutes ago)
KISM Del/Gnd/Twr Audio Archives
Kissimmee Ground/Clearance Delivery121.700
Kissimmee Tower/CTAF124.450


Unauthorized use prohibited. See Terms of Service

Find LiveATC Audio Streams

Airport/ARTCC Code

(e.g., 124.400, 128.75)
Site-wide search

Browse LiveATC Feeds
LiveATC Coverage Map
Top 50 LiveATC Feeds
Bad Weather Areas

Offer a LiveATC Feed
Press Inquiries

LiveATC on iPhone
LiveATC on Android

Windows Phone
Windows 8/10

LiveATC Mobile
(Mobile browser)

ATC Audio Archives
Interesting Recordings

LiveATC Forums

Home Page
Make a Donation
LiveATC Bookstore

Terms of Use
Privacy Policy

ATC/Radar Sites
U.S. ARTCC Freqs
Canadian Air Freqs


FAA Airport Status
Nat'l Airspace Status
Arrival Demand Charts

Server Software By:

Please make a donation to help us keep growing!